ARIANE 5 DEB [SYLDA] (43635 NORAD) Tracking and Keplerian Element Data

This shows tracking and keplerian element data for the satellite.

Feedback or suggestion? Click here.




ElementValue
Catalog43635
NameARIANE 5 DEB [SYLDA]
Epoch Orbit63
Epoch Day296.69745164
Epoch Year2018
RAAN160.3824
Inclination5.9784
Eccentricity0.7266562
Argument of Perigee200.9966
Mean Anonmoly101.1359
Mean Motion2.28280171
Decay Rate9.7E-07
L11 43635U 18074D 18296.69745164 .00000097 00000-0 10000-3 0 9999
L22 43635 5.9784 160.3824 7266562 200.9966 101.1359 2.28280171 636

Live tracking and technical data element details for ARIANE 5 DEB [SYLDA] (NORAD 43635). ARIANE 5 DEB [SYLDA] can be tracked NOW for your location showing map with azimuth and elevation plus other details from your city location.

Track the satellite on the map from your city or location and see movement details for azimuth, elevation, latitude, longitude, range, height, and movement on the map or in text.







IsCatalogInMostPopularTable: catalog: 43635, numindb: 23
Update: records affected: 1



GetName: 43635 ARIANE 5 DEB [SYLDA]

Hit Count: updated at: Tue, 20 Nov 2018 11:24:07 GMT